Location: Dorchester
(33.5304°N, 96.6894°W)
Time: 13:17:12
(UTC+00:00)

Daily predictions for brighter satellites

Satellite Brightness Start Highest point End
(mag) Time Altitude Azimuth Time Altitude Azimuth Time Altitude Azimuth
YAOGAN 6 4.5 12:05:35 15° WSW 12:05:35 15° WSW 12:06:29 10° SW
CZ-4B R/B 3.7 12:01:26 10° NNE 12:04:52 47° E 12:08:22 10° S
Cosmos 1408 Rocket 3.9 12:02:13 10° S 12:06:29 68° E 12:10:45 10° NNE
Cosmos 2142 Rocket 4.5 12:00:41 10° N 12:07:03 82° W 12:13:26 10° S
OAO 3 Rocket 4.2 12:06:12 19° W 12:09:11 36° SSW 12:13:42 10° SE
BREEZE-M DEB 2.7 12:11:17 16° WSW 12:13:17 63° NW 12:19:23 10° NE
OE (NEXTSAT) 4.3 12:12:45 22° WNW 12:14:46 72° SW 12:18:10 10° SE
USA 215 3.8 12:08:55 10° ESE 12:15:13 54° NE 12:21:32 10° NNW
Cosmos 836 Rocket 4.4 12:10:38 10° NNW 12:15:53 81° WSW 12:21:03 10° SSE
Cosmos 2279 Rocket 3.9 12:10:59 10° N 12:17:09 71° W 12:23:17 10° S
Cosmos 1867 4.3 12:13:50 16° WNW 12:17:21 32° WSW 12:22:08 10° S
Nadezhda 4 Rocket 4.1 12:14:13 10° S 12:20:19 80° E 12:26:32 10° N
Cosmos 1503 Rocket 4.3 12:17:54 10° SW 12:22:51 43° WNW 12:27:54 10° N
DMSP B5D2-2 4.4 12:20:04 10° SSE 12:25:15 72° ENE 12:30:27 10° N
Cosmos 1656 Rocket 4.4 12:22:16 10° WSW 12:26:50 28° WNW 12:31:27 10° N
Cosmos 1515 Rocket 3.8 12:24:58 10° N 12:29:19 72° E 12:33:37 10° SSE
SJ 16-02 1.4 12:26:11 10° SSW 12:30:34 84° ESE 12:34:57 10° NNE
CZ-2C R/B 3.3 12:26:36 10° SSW 12:31:41 37° W 12:36:41 10° NNW
Cosmos 1340 Rocket 3.1 12:29:20 10° S 12:33:13 72° E 12:37:10 10° NNE
Cosmos 1777 Rocket 3.9 12:28:57 10° SSW 12:34:08 80° WNW 12:39:23 10° NNE
BREEZE-M DEB (TANK) 3.7 12:19:03 10° NW 12:34:13 71° SW 12:38:31 10° SE
SL-27 R/B 4.2 12:31:28 10° N 12:34:44 33° ENE 12:37:56 10° SE
Cosmos 1500 Rocket 3.6 12:38:21 10° S 12:42:47 82° W 12:47:16 10° N
Cosmos 1939 Rocket 2.7 12:43:29 10° N 12:47:22 65° WNW 12:51:11 10° SSW
NOAA 6 4.2 12:43:03 10° NNE 12:48:11 83° ESE 12:53:18 10° SSW
Cosmos 773 Rocket 4.3 12:43:33 10° NNW 12:48:46 74° ENE 12:53:54 10° SSE
CORIOLIS 4.5 12:44:45 10° NNE 12:50:13 76° ESE 12:55:38 10° S
Cosmos 1763 Rocket 4.2 23:38:59 10° SSW 23:43:56 56° WNW 23:48:57 10° N
Aurora 2 Rocket 4.4 23:40:42 10° WSW 23:44:46 32° S 23:50:17 10° ESE
Cosmos 841 Rocket 3.5 23:44:33 10° S 23:49:38 64° ESE 23:54:44 10° NNE
Cosmos 1697 Rocket 3.0 23:47:51 10° N 23:53:11 43° ENE 23:58:28 10° SE
Cosmos 1602 4.0 23:50:25 10° N 23:54:07 43° E 23:57:48 10° SSE
Cosmos 1782 2.9 23:50:32 10° S 23:54:27 58° E 23:58:23 10° NNE
Okean O Rocket 3.0 23:53:39 10° ESE 23:56:32 17° ENE 23:59:25 10° NNE
